Regional Weather Roundup
Issued by NWS

Home | Current Version | Previous Version | Graphics & Text | Print | Product List | Glossary On
Versions: 1 2 3 4 5 6 7 8 9 10 11 12 13 14 15 16 17 18 19 20 21 22 23 24 25 26 27 28 29 30 31 32 33 34 35 36 37 38 39 40 41 42 43 44 45 46 47 48 49 50
000
ASUS45 KSLC 050910
RWRUT

UTAH REGIONAL WEATHER ROUNDUP
NATIONAL WEATHER SERVICE SALT LAKE CITY UT
300 AM MDT THU MAY 05 2016

UTZ001>011-023>025-051000-

NORTHERN UTAH

CITY           SKY/WX    TMP DP  RH WIND       PRES   REMARKS
BRIGHAM CITY   CLOUDY    58  37  46 NW5       29.96S
HILL AFB       CLOUDY    62  33  33 E13G20    29.97F
LOGAN          CLOUDY    52  42  69 CALM      29.98F
OGDEN          CLOUDY    61  35  37 S9        29.95S
PROVO AIRPORT  CLOUDY    61  30  31 CALM      29.97F
SALT LAKE CITY CLOUDY    65  33  30 SE10      29.94F
VERNAL         CLOUDY    50  31  48 NW5       30.10S
WENDOVER       MOCLDY    57  39  51 SW5       29.94R
HEBER CITY     CLOUDY    45  34  65 CALM      30.05F

$$

UTZ012>022-026-027-051000-

SOUTHERN/CENTRAL UTAH

CITY           SKY/WX    TMP DP  RH WIND       PRES   REMARKS
BLANDING       PTCLDY    54  26  34 NE6       30.21R
BRYCE CANYON   MOCLDY    33  30  88 SW5       30.17F WCI  29
CEDAR CITY     MOCLDY    48  34  58 CALM      29.99F
DELTA          MOCLDY    54  34  47 S9        29.98R
HANKSVILLE     MOCLDY    55  34  44 CALM      30.02F
MILFORD        MOCLDY    51  35  54 S5        29.98F
MOAB/CYNLANDS  PTCLDY    64  27  24 VRB3      30.01S
PRICE          MOCLDY    52  29  41 N8        30.09F
ST GEORGE      CLOUDY    66  37  34 S5        29.89S

$$

REGIONAL REPORTS     COLORADO/ARIZONA

CITY           SKY/WX    TMP DP  RH WIND       PRES   REMARKS
CRAIG, CO      CLOUDY    36  33  89 CALM      30.18F
GRAND JUNCTION CLOUDY    54  33  45 E14       30.08F
RIFLE          CLOUDY    46  33  60 SE3       30.17S
MONTROSE       CLOUDY    52  28  39 E7        30.18F
CORTEZ         CLEAR     41  30  65 CALM      30.17F
PAGE, AZ       CLEAR     65  27  23 SE6       29.97F
GRAND CANYON   MOCLDY    42  30  62 NE8       30.14F
KINGMAN          N/A     65  24  21 SE17      29.88F
FLAGSTAFF      CLEAR     37  28  70 CALM      30.17F

$$

REGIONAL REPORTS    NEVADA/IDAHO/WYOMING

CITY           SKY/WX    TMP DP  RH WIND       PRES   REMARKS
LAS VEGAS, NV  MOCLDY    74  31  20 S5        29.72F
ELY            MOCLDY    43  28  55 S14       30.02F
ELKO           MOCLDY    53  39  59 E5        29.92F
POCATELLO, ID  CLOUDY    49  41  74 CALM      29.96F
BURLEY         MOCLDY    50  44  80 CALM      29.90F
EVANSTON, WY   CLOUDY    52  26  36 SE6       30.14F
ROCK SPRINGS   CLOUDY    49  27  42 SW3       30.14F
KEMMERER         N/A     41  32  70 N9        30.17F

$$



USA.gov is the U.S. government's official web portal to all federal, state and local government web resources and services.